Regional Weather Roundup
Issued by NWS

Current Version | Previous Version | Text Only | Print | Product List | Glossary Off
Versions: 1 2 3 4 5 6 7 8 9 10 11 12 13 14 15 16 17 18 19 20 21 22 23 24 25 26 27 28 29 30 31 32 33 34 35 36 37 38 39 40 41 42 43 44 45 46 47 48 49 50

000
ASUS44 KJAN 260810
RWRMS

MISSISSIPPI HOURLY WEATHER ROUNDUP
NATIONAL WEATHER SERVICE JACKSON MS
300 AM CDT SUN OCT 26 2014

NOTE: "FAIR: INDICATES FEW OR NO CLOUDS BELOW 12,000 FEET WITH NO
SIGNIFICANT WEATHER AND/OR OBSTRUCTIONS TO VISIBILITY.

MSZ001>002-007>008-010>013-018>021-025>028-034>036-260900-
NORTHWEST MISSISSIPPI

CITY           SKY/WX    TMP DP  RH WIND       PRES   REMARKS
CLARKSDALE     FAIR      64  64 100 SW5       30.02F
CLEVELAND      FAIR      62  62 100 SW5       30.02F
GREENWOOD      CLEAR     58  56  93 CALM      30.03F FOG
GREENVILLE     CLEAR     60  58  92 SW5       30.02F
GRENADA          N/A    N/A N/A N/A MISG        N/A
OLIVE BRANCH   CLEAR     61 N/A N/A CALM      30.01F
OXFORD         FAIR      55  55 100 CALM      30.03F FOG
TUNICA           N/A     61  59  94 CALM      30.02S FOG
$$

MSZ003>006-009-014>017-022>024-029>033-037>039-260900-
NORTHEAST MISSISSIPPI

CITY           SKY/WX    TMP DP  RH WIND       PRES   REMARKS
COLUMBUS AFB   CLEAR     54  54 100 SE2       30.03S
CORINTH        FOG       55  55 100 CALM      30.01F VSB 1/4
GOLDN TRIANGLE CLEAR    N/A N/A N/A CALM      30.02S
STARKVILLE     FOG       55  55 100 CALM      30.03F VSB 1/4
TUPELO         CLEAR     60  57  89 CALM      30.02F
$$

MSZ040-058-260900-
CENTRAL MISSISSIPPI

CITY           SKY/WX    TMP DP  RH WIND       PRES   REMARKS
JACKSON INTL   CLEAR     56  55  97 CALM      30.05F FOG
JACKSON HAWKNS CLEAR     58  56  93 CALM      30.04F FOG
MERIDIAN KEY   CLEAR     54  53  97 CALM      30.04F
MERIDIAN NAS   CLEAR     58  55  90 CALM      30.04F
RAYMOND        FAIR      54  50  87 MISG      30.04F FOG
VICKSBURG      CLEAR     55  54  96 CALM      30.05S
$$

MSZ059>079-260900-
SOUTH MISSISSIPPI

CITY           SKY/WX    TMP DP  RH WIND       PRES   REMARKS
BROOKHAVEN     FAIR      55  55 100 CALM      30.07F
COLUMBIA         N/A     52  52 100 MISG        N/A
HATTIESBURG    CLEAR     57  55  93 CALM      30.05F
MCCOMB         CLEAR     56  52  86 CALM      30.05F
NATCHEZ        CLEAR     55  52  88 S3        30.06F
PINE BELT      CLEAR     55  52  88 CALM      30.06F
$$

MSZ080>082-260900-
COASTAL MISSISSIPPI

CITY           SKY/WX    TMP DP  RH WIND       PRES   REMARKS
BILOXI         CLEAR     63  60  91 NW2       30.04F
PASCAGOULA     CLEAR     53  52  96 CALM      30.04F FOG
GULFPORT       CLEAR     58  56  93 CALM      30.03F
$$



USA.gov is the U.S. government's official web portal to all federal, state and local government web resources and services.